Weather History for Baraboo, WI

Change the Weather History Date:

Sunday, January 19, 2014

  Actual Average Record
Temperature  
Mean Temperature 23 °F -  
Max Temperature 34 °F 26 °F 47 °F (1989)
Min Temperature 12 °F 4 °F -28 °F (1970)
Degree Days  
Heating Degree Days 42    
Moisture  
Dew Point 18 °F    
Average Humidity 75    
Maximum Humidity 90    
Minimum Humidity 60    
Precipitation  
Precipitation 0.00 in - - ()
Sea Level Pressure  
Sea Level Pressure 29.56 in    
Wind  
Wind Speed 11 mph (WSW)    
Max Wind Speed 20 mph    
Max Gust Speed 25 mph    
Visibility 10 miles    
Events      
Averages and records for this station are not official NWS values.
T = Trace of Precipitation, MM = Missing Value Source: NWS Daily Summary

Daily Weather History Graph

Daily Weather History Graph

Search for Another Location

Airport:

Trip Planner

Search our weather history database for the weather conditions in past years. The results will help you decide how hot, cold, wet, or windy it might be!

Date:

Astronomy

Jan. 19, 2014 Rise Set
Actual Time 7:26 AM CST 4:53 PM CST
Civil Twilight 6:55 AM CST 5:24 PM CST
Nautical Twilight 6:20 AM CST 5:59 PM CST
Astronomical Twilight 5:46 AM CST 6:34 PM CST
Moon 8:39 PM CST (1/19) 8:49 AM CST (1/19)
Length of Visible Light 10h 29m
Length of Day
9h 26m
Waning Gibbous, 89% of the Moon is Illuminated
Jan 19
Waning Gibbous
Jan 23
Last Quarter
Jan 30
New
Feb 6
First Quarter
Feb 14
Full

Hourly Weather History & Observations

Time (CST) Temp. Windchill Dew Point Humidity Pressure Visibility Wind Dir Wind Speed Gust Speed Precip Events Conditions
12:15 AM 12.7 °F -0.4 °F 10.4 °F 90% 29.76 in 10.0 mi WSW 10.4 mph - N/A   Scattered Clouds
12:35 AM 13.1 °F 0.9 °F 10.8 °F 90% 29.75 in 10.0 mi West 9.2 mph - N/A   Overcast
12:55 AM 13.3 °F 1.1 °F 10.8 °F 90% 29.73 in 10.0 mi WSW 9.2 mph - N/A   Overcast
1:15 AM 13.8 °F 1.0 °F 11.1 °F 89% 29.72 in 10.0 mi WSW 10.4 mph 16.1 mph N/A   Overcast
1:35 AM 14.5 °F 0.5 °F 11.5 °F 88% 29.74 in 10.0 mi WSW 12.7 mph - N/A   Mostly Cloudy
1:55 AM 14.9 °F 2.3 °F 11.7 °F 87% 29.74 in 10.0 mi SW 10.4 mph - N/A   Mostly Cloudy
2:15 AM 14.9 °F 0.9 °F 11.3 °F 86% 29.72 in 10.0 mi WSW 12.7 mph - N/A   Mostly Cloudy
2:35 AM 15.6 °F 4.0 °F 11.3 °F 83% 29.72 in 10.0 mi WSW 9.2 mph - N/A   Scattered Clouds
2:55 AM 15.8 °F 1.4 °F 11.3 °F 82% 29.70 in 10.0 mi WSW 13.8 mph - N/A   Mostly Cloudy
3:15 AM 16.3 °F 2.7 °F 11.1 °F 80% 29.67 in 10.0 mi SW 12.7 mph 18.4 mph N/A   Mostly Cloudy
3:35 AM 17.1 °F 3.6 °F 11.3 °F 78% 29.67 in 10.0 mi WSW 12.7 mph - N/A   Overcast
3:55 AM 17.1 °F 2.5 °F 11.3 °F 78% 29.65 in 10.0 mi WSW 15.0 mph - N/A   Mostly Cloudy
4:15 AM 17.2 °F 0.8 °F 11.7 °F 79% 29.65 in 10.0 mi WSW 19.6 mph 25.3 mph N/A   Scattered Clouds
4:35 AM 17.6 °F 3.2 °F 12.0 °F 79% 29.63 in 10.0 mi WSW 15.0 mph 19.6 mph N/A   Scattered Clouds
4:55 AM 18.3 °F 3.6 °F 12.7 °F 79% 29.62 in 10.0 mi WSW 16.1 mph 21.9 mph N/A   Mostly Cloudy
5:15 AM 18.5 °F 3.3 °F 13.1 °F 79% 29.60 in 10.0 mi WSW 17.3 mph 25.3 mph N/A   Scattered Clouds
5:35 AM 18.7 °F 4.6 °F 13.6 °F 81% 29.60 in 10.0 mi WSW 15.0 mph 25.3 mph N/A   Clear
5:55 AM 18.1 °F 3.9 °F 13.5 °F 82% 29.60 in 10.0 mi WSW 15.0 mph - N/A   Clear
6:15 AM 17.6 °F 3.2 °F 13.1 °F 83% 29.59 in 10.0 mi SW 15.0 mph 18.4 mph N/A   Clear
6:35 AM 18.1 °F 5.6 °F 13.6 °F 83% 29.58 in 10.0 mi SW 11.5 mph - N/A   Clear
6:55 AM 18.3 °F 4.1 °F 14.0 °F 83% 29.57 in 10.0 mi WSW 15.0 mph 23.0 mph N/A   Scattered Clouds
7:15 AM 18.3 °F 7.3 °F 14.0 °F 83% 29.57 in 10.0 mi SW 9.2 mph - N/A   Clear
7:35 AM 18.5 °F 6.1 °F 14.4 °F 84% 29.57 in 10.0 mi WSW 11.5 mph 19.6 mph N/A   Clear
7:55 AM 18.7 °F 5.7 °F 14.4 °F 83% 29.57 in 10.0 mi WSW 12.7 mph - N/A   Clear
8:15 AM 19.4 °F 7.2 °F 14.7 °F 82% 29.57 in 10.0 mi WSW 11.5 mph 18.4 mph N/A   Clear
8:35 AM 20.3 °F 8.3 °F 15.4 °F 81% 29.57 in 10.0 mi WSW 11.5 mph 18.4 mph N/A   Clear
8:55 AM 21.4 °F 9.7 °F 15.8 °F 79% 29.57 in 10.0 mi WSW 11.5 mph - N/A   Clear
9:15 AM 22.6 °F 10.1 °F 16.3 °F 77% 29.57 in 10.0 mi WSW 13.8 mph 17.3 mph N/A   Clear
9:35 AM 23.9 °F 11.7 °F 16.7 °F 74% 29.57 in 10.0 mi WSW 13.8 mph 17.3 mph N/A   Clear
9:55 AM 24.8 °F 12.9 °F 17.4 °F 74% 29.56 in 10.0 mi WSW 13.8 mph 21.9 mph N/A   Clear
10:15 AM 25.9 °F 13.8 °F 17.8 °F 71% 29.56 in 10.0 mi WSW 15.0 mph - N/A   Clear
10:35 AM 27.3 °F 15.6 °F 18.3 °F 69% 29.56 in 10.0 mi WSW 15.0 mph - N/A   Clear
10:55 AM 28.0 °F 17.0 °F 18.5 °F 67% 29.56 in 10.0 mi WSW 13.8 mph - N/A   Clear
11:15 AM 28.4 °F 20.4 °F 18.5 °F 66% 29.55 in 10.0 mi WSW 8.1 mph - N/A   Clear
11:35 AM 28.9 °F 21.1 °F 19.0 °F 67% 29.54 in 10.0 mi WSW 8.1 mph - N/A   Clear
11:55 AM 29.1 °F 20.0 °F 19.4 °F 67% 29.54 in 10.0 mi WSW 10.4 mph - N/A   Clear
12:15 PM 30.0 °F 20.0 °F 19.6 °F 65% 29.53 in 10.0 mi SW 12.7 mph - N/A   Clear
12:35 PM 30.7 °F 22.6 °F 20.1 °F 65% 29.53 in 10.0 mi WSW 9.2 mph - N/A   Clear
12:55 PM 31.5 °F 22.3 °F 20.3 °F 63% 29.51 in 10.0 mi SW 11.5 mph - N/A   Clear
1:15 PM 32.0 °F 23.6 °F 20.8 °F 63% 29.50 in 10.0 mi WSW 10.4 mph 17.3 mph N/A   Clear
1:35 PM 32.7 °F 23.0 °F 21.0 °F 62% 29.48 in 10.0 mi WSW 13.8 mph - N/A   Clear
1:55 PM 32.4 °F 24.0 °F 21.2 °F 63% 29.46 in 10.0 mi SW 10.4 mph - N/A   Clear
2:15 PM 33.1 °F 26.1 °F 21.6 °F 63% 29.44 in 10.0 mi SW 8.1 mph - N/A   Clear
2:35 PM 33.1 °F 25.5 °F 21.7 °F 63% 29.44 in 10.0 mi SW 9.2 mph - N/A   Clear
2:55 PM 34.5 °F 27.3 °F 21.9 °F 60% 29.44 in 10.0 mi WSW 9.2 mph - N/A   Clear
3:15 PM 34.7 °F 28.8 °F 22.1 °F 60% 29.44 in 10.0 mi WSW 6.9 mph - N/A   Clear
3:35 PM 33.6 °F 24.1 °F 22.1 °F 63% 29.45 in 10.0 mi SW 13.8 mph 18.4 mph N/A   Clear
3:55 PM 33.6 °F 25.0 °F 22.1 °F 63% 29.45 in 10.0 mi WSW 11.5 mph - N/A   Clear
4:15 PM 33.1 °F 25.5 °F 22.1 °F 64% 29.46 in 10.0 mi WSW 9.2 mph - N/A   Clear
4:35 PM 32.2 °F 25.0 °F 21.9 °F 66% 29.46 in 10.0 mi SW 8.1 mph - N/A   Clear
4:55 PM 32.0 °F 25.6 °F 22.1 °F 67% 29.47 in 10.0 mi SW 6.9 mph - N/A   Clear
5:15 PM 31.3 °F 24.7 °F 21.7 °F 68% 29.45 in 10.0 mi SW 6.9 mph - N/A   Clear
5:35 PM 30.7 °F 22.6 °F 21.7 °F 69% 29.47 in 10.0 mi SW 9.2 mph - N/A   Clear
5:55 PM 30.7 °F 21.4 °F 21.9 °F 70% 29.45 in 10.0 mi SW 11.5 mph - N/A   Clear
6:15 PM 30.7 °F 24.9 °F 22.1 °F 70% 29.47 in 10.0 mi SW 5.8 mph - N/A   Clear
6:55 PM 29.5 °F 23.4 °F 21.9 °F 73% 29.47 in 10.0 mi WSW 5.8 mph - N/A   Clear
7:15 PM 29.5 °F 24.5 °F 22.3 °F 75% 29.48 in 10.0 mi West 4.6 mph - N/A   Mostly Cloudy
7:35 PM 32.0 °F 25.6 °F 24.3 °F 73% 29.48 in 10.0 mi West 6.9 mph - N/A   Overcast
7:55 PM 32.5 °F 26.2 °F 24.8 °F 73% 29.49 in 10.0 mi West 6.9 mph - N/A   Overcast
8:15 PM 32.5 °F 25.5 °F 25.2 °F 74% 29.50 in 10.0 mi WNW 8.1 mph - N/A   Overcast
8:35 PM 32.5 °F 26.2 °F 25.2 °F 74% 29.50 in 10.0 mi West 6.9 mph - N/A   Overcast
8:55 PM 32.5 °F 26.2 °F 25.3 °F 75% 29.50 in 10.0 mi WNW 6.9 mph - N/A   Overcast
9:15 PM 32.9 °F 27.5 °F 25.5 °F 74% 29.52 in 10.0 mi WNW 5.8 mph - N/A   Overcast
9:35 PM 33.1 °F 26.1 °F 25.7 °F 74% 29.53 in 10.0 mi WNW 8.1 mph - N/A   Overcast
9:55 PM 33.1 °F 26.1 °F 25.7 °F 74% 29.54 in 10.0 mi WNW 8.1 mph - N/A   Overcast
10:15 PM 33.3 °F 26.4 °F 26.1 °F 75% 29.55 in 10.0 mi NNW 8.1 mph - N/A   Overcast
10:35 PM 33.6 °F 26.8 °F 26.4 °F 75% 29.56 in 10.0 mi NW 8.1 mph - N/A   Overcast
10:55 PM 33.4 °F 26.6 °F 26.2 °F 75% 29.57 in 10.0 mi NW 8.1 mph 17.3 mph N/A   Overcast
11:15 PM 32.9 °F 21.6 °F 26.1 °F 76% 29.60 in 10.0 mi NNW 18.4 mph 23.0 mph N/A   Overcast
11:35 PM 31.8 °F 23.9 °F 26.2 °F 80% 29.61 in 10.0 mi North 9.2 mph 16.1 mph N/A   Overcast
11:55 PM 31.1 °F 22.4 °F 26.2 °F 82% 29.62 in 10.0 mi North 10.4 mph 16.1 mph N/A   Overcast